,,PA_Meas_PMT16A,,PR_Meas_QMR101_102,,RH_Meas_QMH101,,SR_Meas_QMS101,,TA_Meas_QMH101,,GenWind,,GenWind,
time,status,PA,status,PR,status,RH,status,SR,status,TA,status,DirAvg,status,SpdAvg,
2014-09-28, 00:00:04,VALID,918.979,VALID,0,VALID,97.0308,VALID,0,VALID,19.7238,VALID,137,VALID,0,
2014-09-28, 00:01:04,VALID,918.988,VALID,0,VALID,97.0385,VALID,0.107441,VALID,19.6623,VALID,137,VALID,0,
2014-09-28, 00:02:04,VALID,918.989,VALID,0,VALID,97.0385,VALID,0,VALID,19.7043,VALID,137,VALID,0,
2014-09-28, 00:03:04,VALID,918.983,VALID,0,VALID,97.0537,VALID,0,VALID,19.6833,VALID,137,VALID,0,
2014-09-28, 00:04:04,VALID,918.987,VALID,0,VALID,97.0613,VALID,0,VALID,19.6833,VALID,137,VALID,0,
2014-09-28, 00:05:04,VALID,919.012,VALID,0,VALID,97.069,VALID,0.107441,VALID,19.7028,VALID,137,VALID,0,
2014-09-28, 00:06:04,VALID,919.029,VALID,0,VALID,97.0766,VALID,0,VALID,19.6833,VALID,137,VALID,0,
2014-09-28, 00:07:04,VALID,919.055,VALID,0,VALID,97.069,VALID,0.107441,VALID,19.7028,VALID,136,VALID,0,
2014-09-28, 00:08:04,VALID,919.051,VALID,0,VALID,97.069,VALID,0,VALID,19.7223,VALID,137,VALID,0,
2014-09-28, 00:09:04,VALID,919.075,VALID,0,VALID,97.1071,VALID,0,VALID,19.7418,VALID,137,VALID,0,
2014-09-28, 00:10:04,VALID,919.055,VALID,0,VALID,97.1071,VALID,0.107441,VALID,19.7403,VALID,137,VALID,0,
2014-09-28, 00:11:04,VALID,919.077,VALID,0,VALID,97.1299,VALID,0,VALID,19.7613,VALID,137,VALID,0,
2014-09-28, 00:12:04,VALID,919.081,VALID,0,VALID,97.1147,VALID,0,VALID,19.7808,VALID,137,VALID,0,
2014-09-28, 00:13:04,VALID,919.07,VALID,0,VALID,97.1223,VALID,0.107441,VALID,19.7613,VALID,138,VALID,0,
2014-09-28, 00:14:04,VALID,919.073,VALID,0,VALID,97.1376,VALID,0,VALID,19.7808,VALID,138,VALID,0,
2014-09-28, 00:15:04,VALID,919.058,VALID,0,VALID,97.1223,VALID,0,VALID,19.8198,VALID,138,VALID,0,
2014-09-28, 00:16:04,VALID,919.046,VALID,0,VALID,97.1376,VALID,0,VALID,19.8003,VALID,138,VALID,0,
2014-09-28, 00:17:04,VALID,919.046,VALID,0,VALID,97.1299,VALID,0,VALID,19.7418,VALID,138,VALID,0,
2014-09-28, 00:18:04,VALID,918.995,VALID,0,VALID,97.1147,VALID,0,VALID,19.6638,VALID,138,VALID,0,
2014-09-28, 00:19:04,VALID,918.991,VALID,0,VALID,97.1299,VALID,0,VALID,19.6443,VALID,138,VALID,0,
2014-09-28, 00:20:04,VALID,918.997,VALID,0,VALID,97.0994,VALID,0.107441,VALID,19.6443,VALID,138,VALID,0,
2014-09-28, 00:21:04,VALID,918.962,VALID,0,VALID,97.0918,VALID,0,VALID,19.5078,VALID,138,VALID,0,
2014-09-28, 00:22:04,VALID,919,VALID,0,VALID,97.0613,VALID,0.107441,VALID,19.4493,VALID,137,VALID,0,
2014-09-28, 00:23:04,VALID,918.971,VALID,0,VALID,97.0766,VALID,0.107441,VALID,19.5078,VALID,137,VALID,0,
2014-09-28, 00:24:04,VALID,918.96,VALID,0,VALID,97.069,VALID,0,VALID,19.5273,VALID,137,VALID,0,
2014-09-28, 00:25:04,VALID,918.993,VALID,0,VALID,97.0766,VALID,0,VALID,19.4688,VALID,137,VALID,0,
2014-09-28, 00:26:04,VALID,918.992,VALID,0,VALID,97.0842,VALID,0.107441,VALID,19.2738,VALID,133,VALID,0,
2014-09-28, 00:27:04,VALID,919.008,VALID,0,VALID,97.0385,VALID,0,VALID,19.2153,VALID,115,VALID,0,
2014-09-28, 00:28:04,VALID,918.991,VALID,0,VALID,97.0613,VALID,0,VALID,19.2543,VALID,113,VALID,0,
2014-09-28, 00:29:04,VALID,919,VALID,0,VALID,97.069,VALID,0,VALID,19.2543,VALID,113,VALID,0,
2014-09-28, 00:30:04,VALID,919.019,VALID,0,VALID,97.0842,VALID,0.107441,VALID,19.2933,VALID,113,VALID,0,
2014-09-28, 00:31:04,VALID,919.004,VALID,0,VALID,97.1147,VALID,0,VALID,19.3533,VALID,113,VALID,0,
2014-09-28, 00:32:04,VALID,919.023,VALID,0,VALID,97.1299,VALID,0.107441,VALID,19.3518,VALID,113,VALID,0,
2014-09-28, 00:33:04,VALID,919.016,VALID,0,VALID,97.1223,VALID,0,VALID,19.3143,VALID,113,VALID,0,
2014-09-28, 00:34:04,VALID,919.016,VALID,0,VALID,97.1299,VALID,0.107441,VALID,19.2933,VALID,113,VALID,0,
2014-09-28, 00:35:04,VALID,919.027,VALID,0,VALID,97.1681,VALID,0,VALID,19.2933,VALID,113,VALID,0,
2014-09-28, 00:36:05,VALID,919.043,VALID,0,VALID,97.1376,VALID,0.107441,VALID,19.2933,VALID,113,VALID,0,
2014-09-28, 00:37:05,VALID,919.023,VALID,0,VALID,97.1147,VALID,0.107441,VALID,19.2738,VALID,113,VALID,0,
2014-09-28, 00:38:05,VALID,919.044,VALID,0,VALID,97.1299,VALID,0,VALID,19.2348,VALID,113,VALID,0,
2014-09-28, 00:39:05,VALID,919.023,VALID,0,VALID,97.1147,VALID,0,VALID,19.2153,VALID,113,VALID,0,
2014-09-28, 00:40:05,VALID,919.054,VALID,0,VALID,97.1223,VALID,0.107441,VALID,19.1763,VALID,113,VALID,0,
2014-09-28, 00:41:05,VALID,919.084,VALID,0,VALID,97.1071,VALID,0,VALID,19.2153,VALID,113,VALID,0,
2014-09-28, 00:42:05,VALID,919.039,VALID,0,VALID,97.1528,VALID,0,VALID,19.2933,VALID,113,VALID,0,
2014-09-28, 00:43:05,VALID,919.034,VALID,0,VALID,97.1528,VALID,0.107441,VALID,19.3323,VALID,113,VALID,0,
2014-09-28, 00:44:05,VALID,919.032,VALID,0,VALID,97.1833,VALID,0,VALID,19.3518,VALID,113,VALID,0,
2014-09-28, 00:45:05,VALID,919.047,VALID,0,VALID,97.1681,VALID,0,VALID,19.4298,VALID,114,VALID,0,
2014-09-28, 00:46:05,VALID,919.016,VALID,0,VALID,97.1909,VALID,0,VALID,19.4298,VALID,114,VALID,0,
2014-09-28, 00:47:05,VALID,918.995,VALID,0,VALID,97.1909,VALID,0,VALID,19.4493,VALID,114,VALID,0,
2014-09-28, 00:48:05,VALID,918.977,VALID,0,VALID,97.1986,VALID,0,VALID,19.4898,VALID,113,VALID,0,
2014-09-28, 00:49:05,VALID,918.982,VALID,0,VALID,97.1986,VALID,0,VALID,19.4688,VALID,113,VALID,0,
2014-09-28, 00:50:05,VALID,918.985,VALID,0,VALID,97.229,VALID,0,VALID,19.4883,VALID,113,VALID,0,
2014-09-28, 00:51:05,VALID,918.976,VALID,0,VALID,97.2138,VALID,0,VALID,19.5078,VALID,113,VALID,0,
2014-09-28, 00:52:05,VALID,918.967,VALID,0,VALID,97.229,VALID,0,VALID,19.5093,VALID,114,VALID,0,
2014-09-28, 00:53:05,VALID,918.969,VALID,0,VALID,97.229,VALID,0,VALID,19.4883,VALID,113,VALID,0,
2014-09-28, 00:54:05,VALID,918.961,VALID,0,VALID,97.2443,VALID,0.107441,VALID,19.4883,VALID,114,VALID,0,
2014-09-28, 00:55:05,VALID,918.902,VALID,0,VALID,97.2367,VALID,0.107441,VALID,19.4883,VALID,114,VALID,0,
2014-09-28, 00:56:05,VALID,918.896,VALID,0,VALID,97.2214,VALID,0,VALID,19.4688,VALID,114,VALID,0,
2014-09-28, 00:57:05,VALID,918.907,VALID,0,VALID,97.229,VALID,0.107441,VALID,19.4493,VALID,114,VALID,0,
2014-09-28, 00:58:05,VALID,918.908,VALID,0,VALID,97.2443,VALID,0,VALID,19.4703,VALID,114,VALID,0,
2014-09-28, 00:59:05,VALID,918.86,VALID,0,VALID,97.2443,VALID,0,VALID,19.3923,VALID,113,VALID,0,
2014-09-28, 01:00:05,VALID,918.852,VALID,0,VALID,97.2367,VALID,0,VALID,19.2738,VALID,113,VALID,0,
2014-09-28, 01:01:05,VALID,918.835,VALID,0,VALID,97.2367,VALID,0.107441,VALID,19.2153,VALID,113,VALID,0,
2014-09-28, 01:02:05,VALID,918.834,VALID,0,VALID,97.2138,VALID,0,VALID,19.1763,VALID,113,VALID,0,
2014-09-28, 01:03:05,VALID,918.795,VALID,0,VALID,97.2443,VALID,0,VALID,19.1568,VALID,113,VALID,0,
2014-09-28, 01:04:05,VALID,918.795,VALID,0,VALID,97.2519,VALID,0,VALID,19.1583,VALID,113,VALID,0,
2014-09-28, 01:05:05,VALID,918.786,VALID,0,VALID,97.2672,VALID,0,VALID,19.1193,VALID,113,VALID,0,
2014-09-28, 01:06:05,VALID,918.787,VALID,0,VALID,97.2443,VALID,0,VALID,19.0593,VALID,114,VALID,0,
2014-09-28, 01:07:05,VALID,918.783,VALID,0,VALID,97.2672,VALID,0,VALID,19.0008,VALID,113,VALID,0,
2014-09-28, 01:08:05,VALID,918.817,VALID,0,VALID,97.2672,VALID,0,VALID,19.0203,VALID,113,VALID,0,
2014-09-28, 01:09:05,VALID,918.8,VALID,0,VALID,97.2595,VALID,0,VALID,19.0008,VALID,113,VALID,0,
2014-09-28, 01:10:05,VALID,918.816,VALID,0,VALID,97.2824,VALID,0,VALID,19.0788,VALID,113,VALID,0,
2014-09-28, 01:11:05,VALID,918.829,VALID,0,VALID,97.2824,VALID,0,VALID,19.1388,VALID,113,VALID,0,
2014-09-28, 01:12:05,VALID,918.847,VALID,0,VALID,97.3053,VALID,0,VALID,19.1373,VALID,113,VALID,0,
2014-09-28, 01:13:05,VALID,918.838,VALID,0,VALID,97.3358,VALID,0,VALID,19.1178,VALID,113,VALID,0,
2014-09-28, 01:14:05,VALID,918.863,VALID,0,VALID,97.3205,VALID,0.107441,VALID,19.1178,VALID,113,VALID,0,
2014-09-28, 01:15:05,VALID,918.814,VALID,0,VALID,97.3358,VALID,0,VALID,19.0788,VALID,113,VALID,0,
2014-09-28, 01:16:05,VALID,918.804,VALID,0,VALID,97.351,VALID,0,VALID,19.0998,VALID,132,VALID,0,
2014-09-28, 01:17:05,VALID,918.787,VALID,0,VALID,97.3434,VALID,0,VALID,19.0998,VALID,133,VALID,0,
2014-09-28, 01:18:05,VALID,918.786,VALID,0,VALID,97.3586,VALID,0,VALID,19.1178,VALID,133,VALID,0,
2014-09-28, 01:19:05,VALID,918.757,VALID,0,VALID,97.3434,VALID,0,VALID,19.1583,VALID,133,VALID,0,
2014-09-28, 01:20:05,VALID,918.73,VALID,0,VALID,97.3434,VALID,0,VALID,19.1763,VALID,133,VALID,0,
2014-09-28, 01:21:05,VALID,918.748,VALID,0,VALID,97.351,VALID,0,VALID,19.1778,VALID,133,VALID,0,
2014-09-28, 01:22:05,VALID,918.689,VALID,0,VALID,97.3739,VALID,0,VALID,19.1388,VALID,133,VALID,0,
2014-09-28, 01:23:05,VALID,918.721,VALID,0,VALID,97.3891,VALID,0,VALID,19.1178,VALID,133,VALID,0,
2014-09-28, 01:24:05,VALID,918.686,VALID,0,VALID,97.3891,VALID,0,VALID,19.0983,VALID,132,VALID,0,
2014-09-28, 01:25:05,VALID,918.712,VALID,0,VALID,97.3815,VALID,0,VALID,19.0803,VALID,133,VALID,0,
2014-09-28, 01:26:05,VALID,918.679,VALID,0,VALID,97.3968,VALID,0,VALID,19.0398,VALID,133,VALID,0,
2014-09-28, 01:27:05,VALID,918.693,VALID,0,VALID,97.412,VALID,0,VALID,19.0008,VALID,133,VALID,0,
2014-09-28, 01:28:05,VALID,918.658,VALID,0,VALID,97.3815,VALID,0,VALID,19.0218,VALID,133,VALID,0,
2014-09-28, 01:29:05,VALID,918.642,VALID,0,VALID,97.412,VALID,0,VALID,19.0008,VALID,133,VALID,0,
2014-09-28, 01:30:05,VALID,918.617,VALID,0,VALID,97.3968,VALID,0,VALID,19.0203,VALID,137,VALID,0,
2014-09-28, 01:31:05,VALID,918.597,VALID,0,VALID,97.3968,VALID,0,VALID,19.0008,VALID,136,VALID,0,
2014-09-28, 01:32:05,VALID,918.591,VALID,0,VALID,97.4196,VALID,0.107441,VALID,18.9814,VALID,136,VALID,0,
2014-09-28, 01:33:05,VALID,918.581,VALID,0,VALID,97.4273,VALID,0,VALID,18.9828,VALID,136,VALID,0,
2014-09-28, 01:34:05,VALID,918.539,VALID,0,VALID,97.4349,VALID,0,VALID,18.9633,VALID,136,VALID,0,
2014-09-28, 01:35:05,VALID,918.5,VALID,0,VALID,97.4349,VALID,0.107441,VALID,18.9814,VALID,134,VALID,0,
2014-09-28, 01:36:05,VALID,918.493,VALID,0,VALID,97.4273,VALID,0,VALID,18.9814,VALID,134,VALID,0,
2014-09-28, 01:37:05,VALID,918.441,VALID,0,VALID,97.4273,VALID,0,VALID,18.9814,VALID,134,VALID,0,
2014-09-28, 01:38:05,VALID,918.433,VALID,0,VALID,97.4425,VALID,0,VALID,18.9814,VALID,134,VALID,0,
2014-09-28, 01:39:05,VALID,918.4,VALID,0,VALID,97.4577,VALID,0,VALID,19.0023,VALID,134,VALID,0,
2014-09-28, 01:40:05,VALID,918.417,VALID,0,VALID,97.4425,VALID,0,VALID,18.9619,VALID,134,VALID,0,
2014-09-28, 01:41:05,VALID,918.383,VALID,0,VALID,97.4349,VALID,0,VALID,18.9619,VALID,134,VALID,0,
2014-09-28, 01:42:05,VALID,918.353,VALID,0,VALID,97.4577,VALID,0,VALID,19.0023,VALID,134,VALID,0,
2014-09-28, 01:43:05,VALID,918.391,VALID,0,VALID,97.4882,VALID,0.107441,VALID,18.9424,VALID,134,VALID,0,
2014-09-28, 01:44:05,VALID,918.359,VALID,0,VALID,97.4654,VALID,0,VALID,18.9619,VALID,134,VALID,0,
2014-09-28, 01:45:05,VALID,918.384,VALID,0,VALID,97.4806,VALID,0,VALID,19.0218,VALID,134,VALID,0,
2014-09-28, 01:46:05,VALID,918.364,VALID,0,VALID,97.4425,VALID,0,VALID,19.1193,VALID,134,VALID,0,
2014-09-28, 01:47:05,VALID,918.375,VALID,0,VALID,97.473,VALID,0,VALID,19.1778,VALID,134,VALID,0,
2014-09-28, 01:48:05,VALID,918.364,VALID,0,VALID,97.4577,VALID,0,VALID,19.1583,VALID,134,VALID,0,
2014-09-28, 01:49:05,VALID,918.356,VALID,0,VALID,97.4654,VALID,0,VALID,19.1388,VALID,134,VALID,0,
2014-09-28, 01:50:05,VALID,918.371,VALID,0,VALID,97.4806,VALID,0,VALID,19.0803,VALID,134,VALID,0,
2014-09-28, 01:51:05,VALID,918.345,VALID,0,VALID,97.4959,VALID,0,VALID,19.0608,VALID,134,VALID,0,
2014-09-28, 01:52:05,VALID,918.359,VALID,0,VALID,97.5035,VALID,0,VALID,19.0398,VALID,134,VALID,0,
2014-09-28, 01:53:05,VALID,918.354,VALID,0,VALID,97.5035,VALID,0.107441,VALID,19.0008,VALID,134,VALID,0,
2014-09-28, 01:54:05,VALID,918.358,VALID,0,VALID,97.5035,VALID,0.107441,VALID,18.9619,VALID,134,VALID,0,
2014-09-28, 01:55:05,VALID,918.343,VALID,0,VALID,97.4882,VALID,0,VALID,18.9633,VALID,134,VALID,0,
2014-09-28, 01:56:05,VALID,918.298,VALID,0,VALID,97.5187,VALID,0,VALID,18.9229,VALID,134,VALID,0,
2014-09-28, 01:57:05,VALID,918.331,VALID,0,VALID,97.5035,VALID,0.107441,VALID,18.9424,VALID,135,VALID,0,
2014-09-28, 01:58:05,VALID,918.318,VALID,0,VALID,97.5035,VALID,0,VALID,18.9619,VALID,154,VALID,0,
2014-09-28, 01:59:05,VALID,918.342,VALID,0,VALID,97.4882,VALID,0,VALID,19.0218,VALID,154,VALID,0,
2014-09-28, 02:00:05,VALID,918.317,VALID,0,VALID,97.4959,VALID,0,VALID,19.0218,VALID,154,VALID,0,
2014-09-28, 02:01:05,VALID,918.326,VALID,0,VALID,97.4806,VALID,0,VALID,19.0398,VALID,154,VALID,0,
2014-09-28, 02:02:05,VALID,918.314,VALID,0,VALID,97.4959,VALID,0.107441,VALID,19.0788,VALID,154,VALID,0,
2014-09-28, 02:03:05,VALID,918.322,VALID,0,VALID,97.4806,VALID,0,VALID,19.1583,VALID,154,VALID,0,
2014-09-28, 02:04:05,VALID,918.311,VALID,0,VALID,97.4806,VALID,0,VALID,19.1973,VALID,154,VALID,0,
2014-09-28, 02:05:05,VALID,918.305,VALID,0,VALID,97.4882,VALID,0,VALID,19.2168,VALID,154,VALID,0,
2014-09-28, 02:06:05,VALID,918.313,VALID,0,VALID,97.4654,VALID,0,VALID,19.3143,VALID,154,VALID,0,
2014-09-28, 02:07:05,VALID,918.306,VALID,0,VALID,97.4577,VALID,0,VALID,19.4118,VALID,154,VALID,0,
2014-09-28, 02:08:05,VALID,918.345,VALID,0,VALID,97.4577,VALID,0,VALID,19.4688,VALID,152,VALID,0,
2014-09-28, 02:09:05,VALID,918.353,VALID,0,VALID,97.4501,VALID,0,VALID,19.5663,VALID,146,VALID,0,
2014-09-28, 02:10:05,VALID,918.364,VALID,0,VALID,97.4349,VALID,0,VALID,19.5858,VALID,146,VALID,0,
2014-09-28, 02:11:05,VALID,918.364,VALID,0,VALID,97.4501,VALID,0,VALID,19.5468,VALID,146,VALID,0,
2014-09-28, 02:12:05,VALID,918.339,VALID,0,VALID,97.473,VALID,0,VALID,19.4493,VALID,146,VALID,0,
2014-09-28, 02:13:05,VALID,918.343,VALID,0,VALID,97.4654,VALID,0,VALID,19.4688,VALID,146,VALID,0,
2014-09-28, 02:14:05,VALID,918.316,VALID,0,VALID,97.4882,VALID,0,VALID,19.5093,VALID,146,VALID,0,
2014-09-28, 02:15:05,VALID,918.325,VALID,0,VALID,97.4806,VALID,0,VALID,19.4688,VALID,147,VALID,0,
2014-09-28, 02:16:05,VALID,918.319,VALID,0,VALID,97.4806,VALID,0,VALID,19.4508,VALID,147,VALID,0,
2014-09-28, 02:17:05,VALID,918.323,VALID,0,VALID,97.5111,VALID,0,VALID,19.4508,VALID,147,VALID,0,
2014-09-28, 02:18:05,VALID,918.34,VALID,0,VALID,97.4806,VALID,0,VALID,19.4493,VALID,147,VALID,0,
2014-09-28, 02:19:05,VALID,918.332,VALID,0,VALID,97.4959,VALID,0,VALID,19.4688,VALID,137,VALID,0,
2014-09-28, 02:20:05,VALID,918.28,VALID,0,VALID,97.473,VALID,0.107441,VALID,19.5288,VALID,137,VALID,0,
2014-09-28, 02:21:05,VALID,918.295,VALID,0,VALID,97.4806,VALID,0,VALID,19.5078,VALID,138,VALID,0,
2014-09-28, 02:22:05,VALID,918.281,VALID,0,VALID,97.4806,VALID,0,VALID,19.4898,VALID,138,VALID,0,
2014-09-28, 02:23:05,VALID,918.26,VALID,0,VALID,97.4959,VALID,0,VALID,19.4688,VALID,138,VALID,0,
2014-09-28, 02:24:05,VALID,918.223,VALID,0,VALID,97.473,VALID,0,VALID,19.4883,VALID,138,VALID,0,
2014-09-28, 02:25:05,VALID,918.199,VALID,0,VALID,97.473,VALID,0,VALID,19.5288,VALID,138,VALID,0,
2014-09-28, 02:26:05,VALID,918.198,VALID,0,VALID,97.4806,VALID,0,VALID,19.5078,VALID,138,VALID,0,
2014-09-28, 02:27:05,VALID,918.116,VALID,0,VALID,97.4882,VALID,0,VALID,19.4883,VALID,138,VALID,0,
2014-09-28, 02:28:05,VALID,918.123,VALID,0,VALID,97.4959,VALID,0,VALID,19.4898,VALID,138,VALID,0,
2014-09-28, 02:29:05,VALID,918.097,VALID,0,VALID,97.4806,VALID,0,VALID,19.5078,VALID,138,VALID,0,
2014-09-28, 02:30:05,VALID,918.055,VALID,0,VALID,97.4806,VALID,0,VALID,19.5093,VALID,138,VALID,0,
2014-09-28, 02:31:05,VALID,918.019,VALID,0,VALID,97.5035,VALID,0,VALID,19.5078,VALID,138,VALID,0,
2014-09-28, 02:32:05,VALID,918.028,VALID,0,VALID,97.5035,VALID,0,VALID,19.4298,VALID,138,VALID,0,
2014-09-28, 02:33:05,VALID,918.008,VALID,0,VALID,97.5111,VALID,0,VALID,19.4103,VALID,138,VALID,0,
2014-09-28, 02:34:05,VALID,918.005,VALID,0,VALID,97.5111,VALID,0,VALID,19.3713,VALID,139,VALID,0,
2014-09-28, 02:35:05,VALID,917.989,VALID,0,VALID,97.5187,VALID,0.107441,VALID,19.3518,VALID,138,VALID,0,
2014-09-28, 02:36:05,VALID,917.989,VALID,0,VALID,97.5187,VALID,0.107441,VALID,19.2933,VALID,137,VALID,0,
2014-09-28, 02:37:05,VALID,917.988,VALID,0,VALID,97.534,VALID,0,VALID,19.2933,VALID,138,VALID,0,
2014-09-28, 02:38:05,VALID,918.003,VALID,0,VALID,97.5264,VALID,0,VALID,19.2753,VALID,140,VALID,0,
2014-09-28, 02:39:05,VALID,917.977,VALID,0,VALID,97.5187,VALID,0,VALID,19.2738,VALID,133,VALID,0,
2014-09-28, 02:40:05,VALID,917.941,VALID,0,VALID,97.5187,VALID,0,VALID,19.3143,VALID,133,VALID,0,
2014-09-28, 02:41:05,VALID,917.953,VALID,0,VALID,97.5035,VALID,0,VALID,19.2933,VALID,145,VALID,0,
2014-09-28, 02:42:05,VALID,917.958,VALID,0,VALID,97.5187,VALID,0,VALID,19.2753,VALID,148,VALID,0,
2014-09-28, 02:43:05,VALID,917.926,VALID,0,VALID,97.5264,VALID,0,VALID,19.2933,VALID,153,VALID,0,
2014-09-28, 02:44:05,VALID,917.914,VALID,0,VALID,97.534,VALID,0,VALID,19.2363,VALID,152,VALID,0,
2014-09-28, 02:45:05,VALID,917.938,VALID,0,VALID,97.5492,VALID,0,VALID,19.1763,VALID,145,VALID,0,
2014-09-28, 02:46:05,VALID,917.938,VALID,0,VALID,97.5569,VALID,0,VALID,19.1778,VALID,134,VALID,0,
2014-09-28, 02:47:05,VALID,917.966,VALID,0,VALID,97.5416,VALID,0,VALID,19.1373,VALID,136,VALID,0,
2014-09-28, 02:48:05,VALID,917.977,VALID,0,VALID,97.5416,VALID,0,VALID,19.1973,VALID,149,VALID,0,
2014-09-28, 02:49:05,VALID,917.986,VALID,0,VALID,97.5645,VALID,0,VALID,19.1568,VALID,150,VALID,0,
2014-09-28, 02:50:05,VALID,917.999,VALID,0,VALID,97.5569,VALID,0,VALID,19.1568,VALID,155,VALID,0,
2014-09-28, 02:51:05,VALID,917.991,VALID,0,VALID,97.5492,VALID,0,VALID,19.1178,VALID,155,VALID,0,
2014-09-28, 02:52:05,VALID,917.986,VALID,0,VALID,97.534,VALID,0,VALID,19.1763,VALID,155,VALID,0,
2014-09-28, 02:53:05,VALID,917.978,VALID,0,VALID,97.5569,VALID,0,VALID,19.1763,VALID,155,VALID,0,
2014-09-28, 02:54:05,VALID,917.988,VALID,0,VALID,97.5492,VALID,0.107441,VALID,19.1568,VALID,155,VALID,0,
2014-09-28, 02:55:05,VALID,917.987,VALID,0,VALID,97.5416,VALID,0,VALID,19.1583,VALID,155,VALID,0,
2014-09-28, 02:56:05,VALID,917.993,VALID,0,VALID,97.5645,VALID,0,VALID,19.1373,VALID,155,VALID,0,
2014-09-28, 02:57:05,VALID,917.999,VALID,0,VALID,97.5492,VALID,0,VALID,19.1178,VALID,155,VALID,0,
2014-09-28, 02:58:05,VALID,917.993,VALID,0,VALID,97.5492,VALID,0,VALID,19.0983,VALID,155,VALID,0,
2014-09-28, 02:59:05,VALID,917.992,VALID,0,VALID,97.5492,VALID,0,VALID,19.1373,VALID,155,VALID,0,
2014-09-28, 03:00:05,VALID,917.966,VALID,0,VALID,97.5721,VALID,0,VALID,19.1958,VALID,155,VALID,0,
2014-09-28, 03:01:05,VALID,917.949,VALID,0,VALID,97.5492,VALID,0,VALID,19.1958,VALID,155,VALID,0,
2014-09-28, 03:02:05,VALID,917.926,VALID,0,VALID,97.5569,VALID,0,VALID,19.2168,VALID,155,VALID,0,
2014-09-28, 03:03:05,VALID,917.933,VALID,0,VALID,97.5721,VALID,0,VALID,19.1568,VALID,155,VALID,0,
2014-09-28, 03:04:05,VALID,917.93,VALID,0,VALID,97.5645,VALID,0,VALID,19.1568,VALID,130,VALID,0,
2014-09-28, 03:05:05,VALID,917.889,VALID,0,VALID,97.5569,VALID,0,VALID,19.1763,VALID,118,VALID,0,
2014-09-28, 03:06:05,VALID,917.878,VALID,0,VALID,97.5569,VALID,0,VALID,19.2558,VALID,118,VALID,0,
2014-09-28, 03:07:05,VALID,917.863,VALID,0,VALID,97.5416,VALID,0,VALID,19.3128,VALID,159,VALID,0,
2014-09-28, 03:08:05,VALID,917.862,VALID,0,VALID,97.5264,VALID,0,VALID,19.3713,VALID,176,VALID,0,
2014-09-28, 03:09:05,VALID,917.849,VALID,0,VALID,97.534,VALID,0,VALID,19.3518,VALID,170,VALID,0,
2014-09-28, 03:10:05,VALID,917.824,VALID,0,VALID,97.5645,VALID,0,VALID,19.2543,VALID,169,VALID,0,
2014-09-28, 03:11:05,VALID,917.783,VALID,0,VALID,97.5645,VALID,0,VALID,19.2348,VALID,169,VALID,0,
2014-09-28, 03:12:05,VALID,917.763,VALID,0,VALID,97.5645,VALID,0,VALID,19.1763,VALID,156,VALID,0,
2014-09-28, 03:13:05,VALID,917.749,VALID,0,VALID,97.5721,VALID,0,VALID,19.1568,VALID,166,VALID,0,
2014-09-28, 03:14:05,VALID,917.762,VALID,0,VALID,97.5797,VALID,0,VALID,19.0983,VALID,164,VALID,0,
2014-09-28, 03:15:05,VALID,917.75,VALID,0,VALID,97.5873,VALID,0,VALID,19.0788,VALID,157,VALID,0,
2014-09-28, 03:16:05,VALID,917.746,VALID,0,VALID,97.5873,VALID,0,VALID,19.0593,VALID,148,VALID,0,
2014-09-28, 03:17:05,VALID,917.747,VALID,0,VALID,97.6026,VALID,0,VALID,19.0788,VALID,146,VALID,0,
2014-09-28, 03:18:04,VALID,917.76,VALID,0,VALID,97.6331,VALID,0,VALID,19.0008,VALID,131,VALID,0,
2014-09-28, 03:19:04,VALID,917.756,VALID,0,VALID,97.6026,VALID,0,VALID,19.0218,VALID,112,VALID,0.0632813,
2014-09-28, 03:20:04,VALID,917.795,VALID,0,VALID,97.6102,VALID,0,VALID,18.9814,VALID,116,VALID,0,
2014-09-28, 03:21:04,VALID,917.778,VALID,0,VALID,97.6178,VALID,0,VALID,18.9619,VALID,113,VALID,0,
2014-09-28, 03:22:04,VALID,917.781,VALID,0,VALID,97.595,VALID,0,VALID,18.9814,VALID,109,VALID,0,
2014-09-28, 03:23:04,VALID,917.82,VALID,0,VALID,97.595,VALID,0,VALID,19.0023,VALID,116,VALID,0,
2014-09-28, 03:24:04,VALID,917.803,VALID,0,VALID,97.595,VALID,0,VALID,19.0008,VALID,138,VALID,0,
2014-09-28, 03:25:04,VALID,917.811,VALID,0,VALID,97.6178,VALID,0,VALID,19.0203,VALID,141,VALID,0,
2014-09-28, 03:26:04,VALID,917.864,VALID,0,VALID,97.595,VALID,0,VALID,19.0398,VALID,143,VALID,0,
2014-09-28, 03:27:04,VALID,917.865,VALID,0,VALID,97.595,VALID,0,VALID,19.0203,VALID,143,VALID,0,
2014-09-28, 03:28:04,VALID,917.875,VALID,0,VALID,97.5873,VALID,0,VALID,19.0413,VALID,143,VALID,0,
2014-09-28, 03:29:04,VALID,917.862,VALID,0,VALID,97.6102,VALID,0,VALID,19.0398,VALID,143,VALID,0,
2014-09-28, 03:30:04,VALID,917.871,VALID,0,VALID,97.6102,VALID,0,VALID,19.0608,VALID,143,VALID,0,
2014-09-28, 03:31:04,VALID,917.861,VALID,0,VALID,97.6026,VALID,0,VALID,19.0413,VALID,143,VALID,0,
2014-09-28, 03:32:04,VALID,917.84,VALID,0,VALID,97.6026,VALID,0,VALID,19.0203,VALID,143,VALID,0,
2014-09-28, 03:33:04,VALID,917.869,VALID,0,VALID,97.6026,VALID,0,VALID,19.0413,VALID,130,VALID,0,
2014-09-28, 03:34:04,VALID,917.841,VALID,0,VALID,97.595,VALID,0,VALID,19.0218,VALID,129,VALID,0,
2014-09-28, 03:35:04,VALID,917.881,VALID,0,VALID,97.6102,VALID,0,VALID,19.0218,VALID,129,VALID,0,
2014-09-28, 03:36:04,VALID,917.879,VALID,0,VALID,97.6255,VALID,0,VALID,19.0023,VALID,130,VALID,0,
2014-09-28, 03:37:04,VALID,917.901,VALID,0,VALID,97.6102,VALID,0,VALID,19.0413,VALID,181,VALID,0,
2014-09-28, 03:38:04,VALID,917.892,VALID,0,VALID,97.595,VALID,0,VALID,19.0203,VALID,181,VALID,0,
2014-09-28, 03:39:04,VALID,917.911,VALID,0,VALID,97.6026,VALID,0,VALID,19.0413,VALID,181,VALID,0,
2014-09-28, 03:40:04,VALID,917.901,VALID,0,VALID,97.6102,VALID,0,VALID,19.0023,VALID,181,VALID,0,
2014-09-28, 03:41:04,VALID,917.897,VALID,0,VALID,97.6178,VALID,0,VALID,18.9814,VALID,87,VALID,0,
2014-09-28, 03:42:04,VALID,917.905,VALID,0,VALID,97.6331,VALID,0,VALID,18.9633,VALID,87,VALID,0,
2014-09-28, 03:43:04,VALID,917.948,VALID,0,VALID,97.6178,VALID,0,VALID,18.9229,VALID,87,VALID,0,
2014-09-28, 03:44:04,VALID,917.932,VALID,0,VALID,97.6255,VALID,0,VALID,18.8839,VALID,87,VALID,0,
2014-09-28, 03:45:04,VALID,917.946,VALID,0,VALID,97.6331,VALID,0.107441,VALID,18.8839,VALID,87,VALID,0,
2014-09-28, 03:46:04,VALID,917.991,VALID,0,VALID,97.656,VALID,0,VALID,18.8463,VALID,87,VALID,0,
2014-09-28, 03:47:04,VALID,917.989,VALID,0,VALID,97.6407,VALID,0,VALID,18.8073,VALID,87,VALID,0,
2014-09-28, 03:48:04,VALID,918.009,VALID,0,VALID,97.6407,VALID,0,VALID,18.8268,VALID,87,VALID,0,
2014-09-28, 03:49:04,VALID,918.009,VALID,0,VALID,97.6178,VALID,0,VALID,18.8853,VALID,87,VALID,0,
2014-09-28, 03:50:04,VALID,918.033,VALID,0,VALID,97.6331,VALID,0,VALID,18.9048,VALID,87,VALID,0,
2014-09-28, 03:51:04,VALID,918.004,VALID,0,VALID,97.6178,VALID,0,VALID,18.9828,VALID,92,VALID,0,
2014-09-28, 03:52:04,VALID,918.024,VALID,0,VALID,97.6102,VALID,0,VALID,18.9633,VALID,92,VALID,0,
2014-09-28, 03:53:04,VALID,918.026,VALID,0,VALID,97.6255,VALID,0.107441,VALID,18.9828,VALID,93,VALID,0,
2014-09-28, 03:54:04,VALID,918.069,VALID,0,VALID,97.6331,VALID,0,VALID,18.9828,VALID,92,VALID,0,
2014-09-28, 03:55:04,VALID,918.034,VALID,0,VALID,97.6331,VALID,0,VALID,18.9828,VALID,93,VALID,0,
2014-09-28, 03:56:04,VALID,918.069,VALID,0,VALID,97.6102,VALID,0,VALID,19.0023,VALID,93,VALID,0,
2014-09-28, 03:57:04,VALID,918.082,VALID,0,VALID,97.6255,VALID,0,VALID,19.0218,VALID,93,VALID,0,